Location: Poughquag
(41.6090°N, 73.6820°W)
Time: 23:50:32
(UTC-04:00)

X-37B - Pass Details

Date: 15 June 2023
Orbit: 277 x 277 km, 45.0° (Epoch: 01 November)

Event Time Altitude Azimuth Distance (km) Brightness Sun altitude
Exits shadow 02:45:51 25° 60° (ENE) 605 2.1 -20.2°
Drops below altitude 10° 02:47:05 10° 67° (ENE) 1,102 3.6 -20.1°
Sets 02:49:01 0° 70° (ENE) 1,916 4.8 -19.9°
